Location: Cuiry
(49.3858°N, 3.7708°E)
Time: 00:17:02
(UTC+00:00)

IRS-P3 - Pass Details

Date: 12 January 2026
Orbit: 811 x 815 km, 99.0° (Epoch: 9 February)

Event Time Altitude Azimuth Distance (km) Brightness Sun altitude
Rises 17:09:55 0° 150° (SSE) 3,321 7.2 -9.5°
Reaches altitude 10° 17:12:16 10° 147° (SSE) 2,394 6.5 -9.8°
Maximum altitude 17:17:27 59° 69° (ENE) 933 4.1 -10.6°
Drops below altitude 10° 17:22:41 10° 351° (N) 2,411 6.5 -11.4°
Sets 17:25:03 0° 348° (NNW) 3,347 7.2 -11.8°
